Vorticity
7 6 7 7 6 7 5 4 8 8 7 2 2 5 1 12 16 0 6 6 14 11 12 11 10 8 6 5 16 12 18 9 12 6 13 8 20 24 42 9 18 3 16 7 22 -9 43
6 10 10 8 6 7 7 6 6 5 7 2 1 15 1 2 14 -6 14 9 14 13 9 13 9 5 8 8 22 30 18 1 16 9 14 7 11 20 25 -4 29 -7 3 26 15 15 34
11 11 11 10 11 9 9 9 6 7 7 11 9 3 -4 6 -22 20 6 7 13 12 13 8 15 5 7 22 14 -4 4 16 7 7 11 -1 1 26 37 16 14 -32 34 -23 26 8 -27
12 10 9 10 10 7 9 10 8 9 9 9 10 -6 14 15 1 16 2 4 16 10 11 11 5 8 26 6 16 18 17 12 6 8 13 -1 16 15 40 18 28 13 -3 10 14 24 32
9 12 14 12 10 11 10 7 11 8 11 11 10 12 6 11 18 8 -4 4 15 13 9 12 8 9 6 8 5 22 47 25 8 9 10 24 14 19 18 14 17 27 24 -1 12 13 11
9 7 7 9 9 10 10 10 10 7 9 10 11 20 3 5 6 12 6 9 14 12 12 8 13 23 -4 11 11 0 32 19 10 9 15 13 4 16 15 -1 22 15 12 26 2 5 34
9 9 9 10 11 8 8 9 8 9 9 10 17 20 15 24 -11 6 8 6 12 4 11 10 6 6 5 5 13 16 11 10 6 5 13 9 6 4 28 7 23 24 2 33 4 40 47
9 10 11 10 9 11 14 12 9 10 12 13 14 21 11 6 -2 -6 -4 29 10 4 12 12 7 8 5 5 14 8 2 3 17 9 12 16 10 -11 21 6 21 12 5 7 2 10 10
10 10 11 12 13 11 12 14 16 14 15 11 18 25 8 22 18 -1 -1 19 15 9 10 11 10 4 1 6 5 18 19 16 14 9 8 10 16 0 3 10 20 10 10 -20 -23 -17 10
9 10 13 16 16 17 15 12 14 16 15 14 14 31 18 5 4 4 -4 23 9 10 16 14 18 5 10 13 17 22 16 19 11 5 8 10 25 9 -4 17 21 14 10 10 16 12 -19
12 9 12 15 13 13 13 9 12 6 6 11 14 25 21 5 -6 4 9 15 9 13 10 14 10 11 5 13 7 15 26 -1 13 8 10 29 12 17 11 10 17 25 11 5 15 3 -3
9 10 17 19 14 11 9 8 8 9 10 10 15 28 44 7 18 -3 6 20 12 7 18 6 8 11 7 9 7 0 22 9 20 9 11 24 1 12 49 8 22 17 19 15 15 22 0
9 14 18 18 10 9 10 10 6 11 12 20 19 45 7 5 10 0 15 15 2 1 14 21 14 9 4 5 2 5 8 1 7 4 7 16 35 21 -5 16 -2 -1 -22 3 -1 3 8
12 21 28 16 10 12 16 12 6 18 13 28 22 29 12 14 -12 7 30 6 -1 20 2 14 12 4 6 2 5 9 10 15 28 5 3 17 -19 -1 8 2 26 2 9 9 7 9 15
23 29 13 3 10 8 5 12 19 14 32 28 69 57 12 5 -2 3 26 -1 6 24 23 17 9 6 4 1 11 0 24 -5 -5 10 21 3 5 3 33 16 -21 12 11 21 3 10 -3
10 10 8 16 3 5 11 20 18 13 17 3 62 32 10 -8 3 28 22 -24 -5 6 8 17 -9 2 8 3 5 6 10 -12 -0 8 9 20 -5 8 26 18 23 9 -2 9 11 7 8
26 10 10 18 3 6 11 21 10 9 16 7 57 22 -3 7 22 30 0 -32 15 11 9 18 -0 15 9 8 7 -3 19 15 8 11 22 -3 12 16 -7 15 3 1 6 12 9 15 13
19 17 10 23 2 7 13 20 9 11 7 4 13 33 28 28 5 12 -4 -26 14 17 7 3 2 9 7 10 7 -2 13 11 4 7 8 8 20 -1 4 10 7 5 3 8 12 9 13
21 11 24 6 11 5 15 16 6 15 -1 19 18 17 39 21 10 14 -7 -9 7 10 10 13 4 6 8 12 13 -2 6 16 1 3 6 5 29 -4 13 8 7 5 5 -0 -1 3 12
16 15 9 10 14 8 18 12 11 7 4 6 22 9 28 3 -6 17 16 -7 1 12 9 13 4 4 13 12 8 10 9 6 6 4 1 -0 4 14 15 18 19 10 7 7 1 7 10
20 19 11 14 12 11 17 8 8 9 27 15 5 13 18 45 11 -20 14 15 13 14 4 10 4 5 5 -1 12 15 9 9 10 6 3 -0 12 9 4 8 15 19 10 5 3 1 1
15 13 10 14 11 15 12 9 5 16 41 7 12 13 9 4 57 1 1 8 9 14 11 10 3 2 5 -1 -12 21 5 13 -2 7 -1 2 15 5 4 4 5 6 15 18 8 8 6
21 11 10 9 15 11 9 11 18 35 15 38 17 10 -43 17 9 25 8 8 -2 13 17 17 -8 7 4 14 -16 13 8 19 18 5 20 1 9 9 9 11 8 18 13 7 12 7 6
20 11 13 9 11 13 9 14 29 29 7 -5 18 12 23 -11 5 35 35 -3 17 19 12 17 3 15 2 8 9 14 20 8 10 18 20 13 -2 -1 7 8 11 13 11 13 18 11 4
16 21 14 14 13 14 7 33 24 26 7 3 34 24 28 -6 21 40 33 6 6 -1 19 10 2 11 5 7 14 -0 5 4 2 23 21 2 6 3 8 12 1 9 12 11 11 12 13
12 16 6 14 18 9 23 42 8 15 -1 31 7 2 -16 -31 29 17 10 16 16 1 13 16 12 4 14 14 -6 13 12 11 17 7 10 19 10 1 12 7 3 4 19 15 6 18 21
10 16 6 25 21 33 24 -7 24 17 27 46 -4 -6 5 25 32 8 6 6 8 10 12 13 7 8 9 -6 -0 9 7 4 6 6 22 3 5 6 4 1 14 11 3 3 14 -2 6
7 17 18 24 20 19 0 20 14 23 21 31 8 -6 18 0 13 19 -0 9 7 7 22 15 10 4 6 7 15 1 15 4 6 6 19 9 2 10 23 2 17 23 18 6 2 -4 -4
10 25 20 17 12 -3 14 20 26 14 21 17 29 16 0 8 28 25 -3 9 9 9 18 15 -19 29 7 -1 1 10 2 18 2 4 4 14 -18 8 -11 23 2 -3 2 10 13 9 11
Height
3126 3122 3119 3115 3112 3108 3105 3103 3101 3097 3094 3093 3091 3086 3081 3077 3073 3068 3064 3058 3053 3048 3045 3041 3039 3036 3032 3029 3028 3024 3022 3018 3016 3016 3014 3013 3012 3011 3009 3012 3016 3019 3026 3032 3038 3042 3046
3121 3117 3112 3109 3104 3101 3098 3094 3092 3091 3088 3086 3083 3081 3077 3073 3069 3063 3058 3054 3048 3045 3040 3038 3036 3030 3028 3024 3021 3019 3017 3016 3013 3012 3010 3010 3009 3008 3006 3009 3015 3019 3025 3030 3035 3039 3043
3115 3109 3106 3102 3097 3092 3089 3087 3083 3082 3080 3079 3075 3073 3072 3069 3064 3059 3054 3050 3044 3042 3037 3033 3032 3027 3024 3021 3018 3016 3013 3012 3010 3009 3008 3007 3005 3005 3006 3009 3015 3016 3026 3030 3032 3038 3036
3107 3101 3097 3093 3089 3085 3080 3078 3075 3073 3071 3069 3067 3066 3065 3062 3059 3054 3049 3045 3041 3037 3034 3030 3027 3024 3021 3018 3015 3010 3006 3007 3007 3006 3005 3005 3003 3001 3001 3007 3011 3017 3023 3027 3030 3034 3037
3102 3096 3091 3085 3080 3076 3073 3070 3068 3064 3062 3060 3059 3058 3058 3056 3052 3049 3046 3040 3039 3033 3031 3028 3025 3022 3019 3017 3012 3005 2999 3001 3004 3004 3003 3002 3002 3003 3002 3005 3010 3017 3019 3025 3029 3032 3040
3096 3089 3083 3078 3071 3066 3062 3058 3055 3054 3052 3049 3048 3050 3050 3049 3045 3043 3042 3037 3034 3029 3029 3026 3024 3022 3018 3015 3011 3005 3001 3000 3003 3004 3003 3003 3004 3004 3005 3007 3008 3013 3021 3024 3028 3030 3032
3087 3081 3076 3070 3065 3060 3055 3051 3048 3045 3043 3040 3039 3040 3040 3041 3040 3038 3037 3032 3033 3029 3025 3025 3023 3019 3017 3014 3010 3007 3005 3005 3004 3005 3003 3003 3006 3004 3003 3008 3009 3013 3019 3023 3030 3031 3035
3080 3075 3069 3064 3059 3053 3048 3043 3039 3035 3032 3032 3032 3031 3032 3033 3035 3034 3031 3027 3027 3026 3024 3021 3020 3019 3017 3014 3010 3008 3006 3006 3004 3004 3004 3005 3004 3007 3007 3007 3011 3016 3020 3022 3026 3029 3030
3075 3069 3064 3059 3054 3047 3041 3036 3031 3028 3024 3023 3024 3024 3023 3025 3027 3029 3028 3025 3024 3022 3022 3018 3017 3018 3017 3014 3010 3008 3007 3005 3005 3004 3005 3005 3006 3008 3010 3009 3014 3016 3018 3019 3020 3028 3031
3072 3066 3058 3050 3044 3039 3035 3030 3025 3021 3017 3015 3014 3016 3013 3017 3023 3023 3024 3022 3019 3020 3019 3017 3016 3017 3015 3013 3011 3008 3007 3007 3006 3006 3006 3006 3007 3009 3012 3013 3016 3018 3020 3024 3028 3033 3038
3062 3053 3044 3038 3032 3029 3027 3023 3018 3014 3011 3009 3005 3007 3007 3011 3017 3018 3018 3016 3016 3020 3021 3015 3015 3015 3013 3014 3014 3011 3009 3007 3007 3008 3009 3009 3009 3011 3012 3015 3015 3019 3022 3027 3031 3031 3036
3049 3041 3034 3028 3024 3019 3015 3011 3007 3004 3002 3001 2998 2998 3001 3006 3012 3013 3013 3012 3016 3020 3014 3011 3013 3013 3014 3013 3014 3012 3010 3009 3009 3009 3008 3009 3010 3011 3012 3015 3015 3020 3023 3024 3029 3033 3041
3041 3033 3026 3020 3016 3012 3008 3003 2998 2994 2991 2989 2991 2990 2992 3000 3007 3007 3007 3009 3016 3012 3009 3009 3010 3010 3012 3014 3015 3013 3012 3010 3009 3012 3009 3011 3012 3013 3017 3019 3022 3023 3026 3031 3036 3038 3040
3032 3025 3018 3014 3010 3006 3000 2994 2990 2986 2983 2981 2977 2981 2982 2989 2996 2999 3001 3007 3008 3003 3003 3004 3007 3010 3012 3014 3015 3014 3013 3012 3012 3013 3013 3014 3018 3019 3020 3022 3024 3028 3029 3031 3034 3036 3041
3024 3017 3012 3007 3005 3000 2996 2989 2984 2980 2977 2972 2967 2969 2976 2985 2988 2993 2997 3000 2997 2999 3001 3001 3006 3009 3011 3013 3015 3015 3014 3014 3015 3015 3017 3018 3021 3022 3022 3025 3029 3031 3030 3030 3031 3035 3040
3018 3012 3007 3003 2999 2994 2989 2983 2979 2976 2971 2966 2959 2964 2972 2980 2984 2988 2992 2993 2995 2996 2997 2999 3004 3007 3009 3012 3015 3015 3015 3017 3017 3018 3018 3020 3024 3026 3027 3029 3030 3029 3033 3033 3031 3038 3040
3011 3006 3001 2997 2993 2989 2984 2979 2975 2973 2966 2962 2957 2961 2968 2975 2979 2983 2985 2987 2992 2995 2997 2999 3002 3005 3009 3012 3015 3016 3017 3018 3019 3020 3021 3022 3024 3031 3031 3030 3032 3032 3031 3030 3031 3037 3043
3003 2998 2995 2991 2988 2984 2979 2975 2972 2970 2964 2961 2958 2962 2965 2970 2976 2977 2980 2985 2991 2992 2995 2997 3002 3005 3009 3012 3014 3015 3016 3017 3019 3021 3022 3023 3024 3027 3031 3032 3034 3036 3035 3034 3035 3041 3043
2998 2993 2990 2986 2983 2979 2975 2972 2970 2968 2965 2960 2959 2960 2964 2967 2972 2975 2979 2983 2988 2991 2993 2996 3001 3005 3009 3012 3015 3015 3016 3017 3019 3022 3024 3025 3027 3030 3032 3033 3030 3029 3030 3034 3038 3043 3045
2992 2988 2985 2981 2978 2974 2971 2969 2967 2965 2963 2961 2960 2961 2964 2967 2971 2975 2978 2983 2986 2989 2993 2997 3001 3005 3008 3011 3012 3013 3015 3017 3019 3022 3024 3025 3027 3029 3033 3032 3033 3034 3036 3039 3041 3042 3042
2988 2983 2980 2976 2973 2970 2967 2965 2964 2962 2960 2959 2958 2961 2963 2965 2970 2975 2979 2982 2985 2987 2992 2997 3001 3005 3008 3011 3013 3014 3016 3018 3020 3022 3024 3026 3027 3030 3032 3033 3034 3035 3036 3038 3039 3040 3042
2982 2978 2975 2971 2968 2966 2963 2961 2959 2958 2957 2956 2957 2960 2963 2965 2969 2974 2978 2981 2984 2987 2991 2995 3001 3004 3008 3012 3014 3015 3017 3019 3021 3024 3025 3026 3028 3030 3031 3031 3032 3034 3036 3036 3037 3039 3041
2977 2973 2970 2966 2963 2960 2958 2956 2954 2953 2953 2954 2955 2960 2964 2966 2969 2972 2976 2981 2985 2989 2993 2997 3002 3005 3009 3013 3016 3017 3019 3020 3021 3023 3025 3028 3030 3031 3032 3032 3033 3034 3033 3035 3036 3036 3039
2972 2969 2965 2961 2957 2955 2953 2951 2949 2949 2951 2952 2954 2961 2964 2968 2969 2969 2973 2981 2985 2989 2993 2997 3001 3005 3010 3012 3016 3018 3019 3021 3022 3022 3025 3027 3030 3033 3033 3034 3037 3033 3033 3033 3034 3036 3038
2968 2964 2961 2957 2953 2950 2948 2946 2945 2945 2948 2952 2955 2960 2964 2967 2970 2969 2972 2979 2985 2989 2993 2998 3001 3005 3009 3013 3016 3019 3021 3023 3023 3024 3025 3028 3030 3032 3034 3034 3033 3032 3033 3033 3033 3035 3035
2966 2961 2957 2953 2949 2945 2943 2941 2943 2947 2949 2952 2955 2962 2966 2969 2970 2970 2974 2980 2985 2989 2994 2997 3002 3005 3008 3011 3015 3017 3020 3021 3023 3024 3025 3028 3030 3033 3034 3035 3033 3032 3030 3031 3031 3032 3032
2963 2959 2953 2948 2945 2943 2941 2942 2944 2944 2947 2953 2958 2964 2968 2969 2970 2972 2976 2982 2985 2990 2994 2997 3001 3005 3008 3010 3014 3017 3018 3020 3021 3022 3024 3027 3029 3031 3033 3033 3029 3029 3030 3031 3032 3036 3031
2960 2956 2951 2948 2945 2943 2943 2944 2942 2943 2948 2954 2960 2966 2970 2970 2971 2974 2978 2983 2987 2990 2994 2997 3002 3004 3007 3010 3013 3015 3017 3018 3019 3021 3022 3025 3028 3029 3032 3032 3029 3027 3028 3030 3030 3028 3029
2958 2953 2951 2948 2947 2947 2945 2942 2941 2946 2951 2957 2962 2968 2971 2973 2975 2977 2980 2985 2988 2992 2995 2998 3001 3003 3006 3009 3012 3014 3015 3016 3017 3019 3021 3024 3024 3025 3027 3025 3025 3025 3026 3026 3026 3026 3026